Airfield :







YOU CAN JOIN US ON...

 
LOGIN :

Register | Disclaimer

   EN    FR    IT 

 









Legend :    VFR   Marginal VFR   IFR   Intensive IFR   Very Intensive IFR
Visi :
Ceiling :
>= 8 km
>= 3000ft
5 to 8 km
1000 to 3000 ft
1500m to 5 km
500 to 1000 ft
800 to 1500m
200 to 500 ft
< 800m
< 200 ft
Symbols :   Thunderstorms  Fog  Heavy snow  Heavy precipitations  Wind > 20 kt






- Airport Elevation : 40 ft
- IATA code : YRF


CYCA - Cartwright

CURRENT METAR :
  • 241200Z AUTO 23003KT 9SM CLR M21/M24 A3032 RMK SLP272

EXPIRED METARs :
  • 241100Z AUTO 23006KT 9SM CLR M23/M25 A3029 RMK SLP261
  • 241000Z AUTO 23004KT 9SM CLR M21/M22 A3028 RMK SLP256

TAF TAF CYCA
Valid from the 24 at 08:00 until the 24 at 20:00 UTC


240738Z 2408/2420 20005KT P6SM FEW040
BECMG 2416/2418 12008KT RMK FCST BASED ON AUTO OBS. NXT FCST BY 241400Z



MET'MAP, your aeronautical weather chart ! - Copyright ORBIFLY December 2007 - Disclaimer

ORBIFLY MET'MAP TEAM :

Programming & Development : Alexandra Zaïnal
Concept & original design : Baudouin d'Aumeries
Assistance for programming : Marc-Olivier Méhu
Technical & hardware support : Manuel Goepfert

Contact : metmap@orbifly.com




SOURCES & CREDITS :

   NOAA